Location: Oteiza
(42.6167°N, 1.9500°W)
Time: 23:16:58
(UTC+01:00)

ISS - Visible Passes

Search period start: 23 March 2017 00:00
Search period end: 02 April 2017 01:00
Orbit: 399 x 409 km, 51.6° (Epoch: 24 March)

Date Brightness Start Highest point End Pass type
(mag) Time Alt. Az. Time Alt. Az. Time Alt. Az.
23 Mar -0.8 04:30:04 14° E 04:30:04 14° E 04:30:38 10° E visible
23 Mar -2.7 06:02:47 22° WSW 06:03:49 26° SW 06:06:36 10° SSE visible
24 Mar -1.9 05:13:26 21° SSE 05:13:26 21° SSE 05:14:46 10° SE visible
26 Mar -1.0 22:39:52 10° SW 22:40:09 12° SW 22:40:09 12° SW visible
27 Mar -3.4 21:47:43 10° SSW 21:50:48 40° SE 21:51:06 39° ESE visible
28 Mar -2.4 20:55:59 10° S 20:58:32 22° SE 21:01:07 10° E visible
28 Mar -2.8 22:31:38 10° WSW 22:34:29 46° NW 22:34:29 46° NW visible
29 Mar -3.9 21:39:06 10° WSW 21:42:21 85° NNW 21:44:54 16° NE visible
29 Mar -0.7 23:16:35 10° WNW 23:17:35 16° NW 23:17:35 16° NW visible
30 Mar -1.9 22:23:41 10° W 22:26:35 28° NNW 22:27:45 22° NNE visible
31 Mar -2.6 21:30:53 10° W 21:34:00 41° NNW 21:37:07 10° NE visible
31 Mar -1.0 23:08:47 10° NW 23:10:26 17° NNW 23:10:26 17° NNW visible
01 Apr -1.4 22:15:52 10° WNW 22:18:23 20° NNW 22:20:17 13° NNE visible
